Starlink 11708

operational
NORAD ID: 64238 Int'l Des: 2025-119 Owner: SPXS Country: US Constellation: starlink
LEOCIRCULAR

Starlink 11708について

説明を読み込み中...

リアルタイム位置

3D地球を読み込み中...

次回通過

高度履歴

Altitude vs Time

uPlot chart will show altitude changes over time

軌道要素

1 64238U 25119F 25354.29314726 .00174721 00000-0 13334-2 0 9992
2 64238 42.9987 328.0526 0001297 282.6749 77.3974 15.70899382 32753
Epoch: Dec 20, 2025 • Age: 22 hours

現在のステータス

高度 359.2 km
速度 7.70 km/s
衛星直下点 42.46°N, 97.1°W
打ち上げ日 Jun 3, 2025
運用期間 0.5 years
タイプ internet

技術仕様

分類 Payload
質量 960.00 kg
乾燥質量 910.00 kg
総質量 960.00 kg
長さ 0.30 m
直径 4.10 m
スパン 29.00 m
形状 Box + pan
製造者 SPXS
バスタイプ Starlink V2MD
フェーズステータス In Orbit
所有者/国 SPXS/US

大規模コンステレーション

Loading constellations...